Home > Weather > Hohenems > Past weeks

Flag for Austria Past Weather in Hohenems, Vorarlberg, Austria — Yesterday and Last 2 Weeks

Now
79 °F

Warm.


Feels Like: 81 °F
Forecast: 59 / 89 °F
Wind: 2 mph from North

Location: Feldkirch

Current Time: Jul 29, 2016 at 6:00:46 PM

Latest Report: Jul 29, 2016 at 5:00 PM


Visibility: N/A

Pressure: 29.91 "Hg

Humidity: 60%

Dew Point: 64 °F

Location of HohenemsLocation

Past Weather in Hohenems — Graph

°F

Hohenems Temperature Yesterday

Maximum temperature yesterday: 78 °F (at 5:00 PM)
Minimum temperature yesterday: 60 °F (at 7:00 AM)
Average temperature yesterday: 69 °F

High & Low Weather Summary for the Past Weeks

 TemperatureHumidityPressure
High88 °F (Jul 20, 5:00 PM)98% (Jul 29, 6:00 AM)30.37 "Hg (Jul 29, 6:00 AM)
Low46 °F (Jul 16, 5:00 AM)41% (Jul 19, 7:00 PM)29.87 "Hg (Jul 22, 2:00 PM)
Average68 °F74%30.08 "Hg
* Reported Jul 14 4:00 PM — Jul 29 4:00 PM, Hohenems, Weather by CustomWeather, © 2016

Note: Actual official high and low records may vary slightly from our data, if they occured in-between our weather recording intervals... More about our weather records

Advertising

Hohenems Weather History for the Previous 24 Hours

Scroll right to see more
 ConditionsComfort  
Time TempWeatherWind HumidityBarometerVisibility
4:00 PM
Fri, Jul 29
79 °FWarm.2 mph61%29.91 "HgN/A
3:00 PM79 °FWarm.1 mph57%29.92 "HgN/A
2:00 PM79 °FWarm.1 mph62%29.93 "HgN/A
1:00 PM78 °FWarm.1 mph62%29.95 "HgN/A
12:00 PM76 °FMild.1 mph63%29.97 "HgN/A
11:00 AM74 °FScattered clouds.1 mph68%29.99 "Hg9 mi
10:00 AM71 °FMild.1 mph80%30.01 "HgN/A
9:00 AM67 °FMild.1 mph87%30.03 "HgN/A
8:00 AM65 °FMild.No wind96%30.03 "HgN/A
7:00 AM64 °FOvercast.No wind97%30.03 "Hg6 mi
6:00 AM63 °FMild.No wind98%30.03 "HgN/A
5:00 AM64 °FMild.No wind97%30.03 "HgN/A
4:00 AM64 °FMild.No wind95%30.03 "HgN/A
3:00 AM65 °FSprinkles. Overcast.1 mph96%30.03 "HgN/A
1:00 AM64 °FMild.1 mph96%30.03 "HgN/A
12:00 AM65 °FMild.No wind94%30.03 "HgN/A
10:00 PM
Thu, Jul 28
65 °FMild.3 mph91%30.02 "HgN/A
9:00 PM72 °FMild.No wind69%29.98 "HgN/A
7:00 PM75 °FMild.2 mph60%29.95 "HgN/A
6:00 PM77 °FMild.1 mph58%29.95 "HgN/A
Weather by CustomWeather, © 2016

See weather overviewHow to use our weather pages